weather.gov     
National Weather Service

Regional Weather Roundup
NWS Homepage
This page is being discontinued on March 12, 2014.
The same data is available at this site. Please update your bookmarks.
Thank you, and we apologize for the inconvenience.
Please send an email to SR-SRH.Webmaster@noaa.gov with any concerns.


Current Version
Previous Version:    01  02  03  04  05  06  07  08  09  10  11  12  13  14  15  16  17  18  19  20  21  22  23  24  25  26  27  28  29  30  
[Printable]
059
ASUS45 KCYS 220810
RWRWY

WYOMING REGIONAL WEATHER ROUNDUP
NATIONAL WEATHER SERVICE CHEYENNE WY
200 AM MDT MON SEP 22 2014

NOTE:  "FAIR" INDICATES FEW OR NO CLOUDS BELOW 12,000 FEET
WITH NO SIGNIFICANT WEATHER AND/OR OBSTRUCTIONS TO VISIBILITY.

WYZ001-220900-
YELLOWSTONE NATIONAL PARK

CITY           SKY/WX    TMP DP  RH WIND       PRES   REMARKS
LK YELLOWSTONE   N/A     48  46  93 CALM      30.33R
W YELLOWSTONE  NOT AVBL

$$
WYZ002>013-054>058-071-098>099-220900-
NORTHERN WYOMING

CITY           SKY/WX    TMP DP  RH WIND       PRES   REMARKS
JACKSON        CLOUDY    52  52 100 CALM      30.26R
CODY             N/A    N/A N/A N/A MISG        N/A
GREYBULL       CLOUDY    61  46  57 E5        30.05F
WORLAND        CLOUDY    63  46  54 CALM      30.06F
SHERIDAN       MOCLDY    54  45  71 S5        30.06F
BUFFALO        MOCLDY    58  42  55 SE17      30.12F
GILLETTE       PTCLDY    58  40  51 S16       30.14S
HULETT         FAIR      64  37  36 MISG      30.16
NEWCASTLE      FAIR      61  36  39 E16G24    30.21

$$
WYZ014>020-022>026-101>103-220900-
CENTRAL WYOMING

CITY           SKY/WX    TMP DP  RH WIND       PRES   REMARKS
BIG PINEY      CLOUDY    52  50  93 E6        30.28F
PINEDALE       PTSUNNY   46  46 100 CALM      30.29S
DUBOIS         CLOUDY    46  45  93 NW7       30.26S
LANDER         PTCLDY    57  44  62 W6        30.14S
RIVERTON       PTCLDY    58  39  49 SW5       30.15F
CASPER         CLOUDY    58  41  53 NE7       30.17F
DOUGLAS        CLOUDY    58  41  53 SE15      30.20F

$$
WYZ021-027>030-104>119-220900-
SOUTHERN WYOMING

CITY           SKY/WX    TMP DP  RH WIND       PRES   REMARKS
EVANSTON       PTCLDY    46  44  93 SW3       30.28S
KEMMERER       FOG       46  46 100 CALM      30.28F VSB<1/4
FORT BRIDGER     N/A     43  43 100 CALM      30.30S
ROCK SPRINGS   CLEAR     49  47  93 SW6       30.27S
DIXON          FAIR      55  48  79 E3        30.27S
RAWLINS        MOCLDY    54  46  74 NE3       30.26F
SARATOGA       FAIR      55  45  67 S12       30.28F
LARAMIE        MOCLDY    50  41  71 S12       30.32R
CHEYENNE       MOCLDY    52  41  66 S9        30.30S
TORRINGTON     MOCLDY    55  42  61 E10       30.21F
PINE BLUFFS    FAIR      57  39  51 S15G22    30.27S

$$




U.S. Dept. of Commerce
NOAA National Weather Service
1325 East West Highway
Silver Spring, MD 20910
E-mail: w-nws.webmaster@noaa.gov
Page last modified: May 16, 2007
NATIONAL WEATHER SERVICE: for Safety, for Work, for Fun - FOR LIFE